THOR ABLESTAR DEB, 1435

Orbit data source: Space-Track

THOR ABLESTAR DEB, 1435 is space debris in LEO originally from a launch on Thu, 24 Jun 1965 UTC launched from the Air Force Western Test Range (AFWTR). Debris objects in space refer to the collection of defunct objects orbiting the Earth. Examples of debris include non-operational satellites, rocket bodies, and fragments generated from explosions, collisions, or faulty payload assembly.

Loading next visibility...
Identifier
1435, 1965-048D
Orbit
LEO
Country
Flag of USUS
Related business
Manufacturer
Unknown
Mission
Spacecraft
Bus & Motor
Unknown
Mass
Unknown
Launch date (UTC)
1965-06-24 (61 years ago)
Launch vehicle
Unknown
Launch site
Air Force Western Test Range (AFWTR)
Object type
Payload
Rocket body
Debris
Shape & HBR
Unknown shape, 0.1 m
Radar Cross Section
Small (<0.1 m²)

Expand to show TLE details & history
Last TLE update: 11 hours ago

TLE from 11 hours ago
0 THOR ABLESTAR DEB
1  1435U 65048D   26127.95276139  .00000670  00000-0  70222-3 0  9995
2  1435  89.8776 290.5219 0059215  77.4198  77.4802 13.73308617 21365
Epoch: 2026-05-07T22:51Z
TLE epoch observation values (Epoch: 2026-05-07T22:51:58.584Z)
Latitude
24.46017°
Longitude
-98.3191°
Altitude
981.548 km
Speed
7.368 km/s
True Right ascension
07h 21m 51s
True Declination
24° 20' 05"
Sunlit
Object was in daylight at epoch
Visualization orbit readout
Latitude
Unknown
Longitude
Unknown
Altitude
Unknown
Speed
Unknown
Apparent Right ascension
Unknown
Apparent Declination
Unknown
Sunlit
N/A
Visualization observer readout
Local Sidereal Time
17:55:34
Azimuth
Unknown
Elevation
Unknown
Doppler factor
Unknown
Orbital elements
Apogee altitude
1,028.331 km
Perigee altitude
941.133 km
Semi-major axis
7,362.869 km
Eccentricity
0.00592
Inclination
89.8776°
RAAN
290.5219°
Arg. of periapsis
77.4198°
True anomaly
78.14367°
Mean anomaly
77.4802°
Eccentric anomaly
77.81183°
Mean motion
3.43536 °/min
Orbital period
104.79 mins
BSTAR
0.00070222
Loading maneuver chart data...
Computing Atmospheric mass density...

Documentation

Showing up to 5 results
|